軌道要素
Epoch 1999 Sept. 19.0 TT = JDT 2451440.5
T 1999 Sept. 5.52185 TT MPCW
q 0.0563802 (2000.0) P Q
n 0.24608401 Peri. 43.47622 +0.66195633 -0.74923393
a 2.5220118 Node 5.21022 +0.60644625 +0.51850210
e 0.9776447 Incl. 13.69653 +0.44049604 +0.41207293
P 4.01
From 244 observations 1999 Sept. 4-2015 May 22.
|